Time,TemperatureF,DewpointF,PressureIn,WindDirection,WindDirectionDegrees,WindSpeedMPH,WindSpeedGustMPH,Humidity,HourlyPrecipIn,Conditions,Clouds,dailyrainin,SoftwareType,DateUTC
2013-02-13 00:02:00,36.6,30.0,29.64,SE,133,0.0,1.0,77,0.00,,,0.02,weatherlink.com 1.10,2013-02-13 05:02:00,
2013-02-13 00:16:00,36.6,30.0,29.64,East,100,0.0,2.0,76,0.00,,,0.02,weatherlink.com 1.10,2013-02-13 05:16:00,
2013-02-13 00:31:00,36.6,30.0,29.64,SSE,155,0.0,5.0,76,0.00,,,0.02,weatherlink.com 1.10,2013-02-13 05:31:00,
2013-02-13 00:46:00,36.1,30.0,29.63,SSE,155,0.0,0.0,77,0.00,,,0.02,weatherlink.com 1.10,2013-02-13 05:46:00,
2013-02-13 01:01:00,34.6,28.0,29.63,SSE,155,0.0,0.0,78,0.00,,,0.02,weatherlink.com 1.10,2013-02-13 06:01:00,
2013-02-13 01:16:00,32.7,28.0,29.63,SSE,155,0.0,0.0,81,0.00,,,0.02,weatherlink.com 1.10,2013-02-13 06:16:00,
2013-02-13 01:31:00,31.2,28.0,29.63,SSE,155,0.0,0.0,86,0.00,,,0.02,weatherlink.com 1.10,2013-02-13 06:31:00,
2013-02-13 01:46:00,30.7,28.0,29.63,SSE,155,0.0,0.0,88,0.00,,,0.00,weatherlink.com 1.10,2013-02-13 06:46:00,
2013-02-13 02:02:00,30.7,28.0,29.63,SSE,155,0.0,0.0,89,0.00,,,0.00,weatherlink.com 1.10,2013-02-13 07:02:00,
2013-02-13 02:17:00,30.3,28.0,29.64,SSE,155,0.0,0.0,89,0.00,,,0.00,weatherlink.com 1.10,2013-02-13 07:17:00,
2013-02-13 02:32:00,29.9,27.0,29.63,SSE,155,0.0,0.0,90,0.00,,,0.00,weatherlink.com 1.10,2013-02-13 07:32:00,
2013-02-13 02:47:00,29.9,27.0,29.64,SSE,155,0.0,0.0,90,0.00,,,0.00,weatherlink.com 1.10,2013-02-13 07:47:00,
2013-02-13 03:02:00,29.2,27.0,29.64,SSE,155,0.0,0.0,91,0.00,,,0.00,weatherlink.com 1.10,2013-02-13 08:02:00,
2013-02-13 03:32:00,29.2,27.0,29.64,SSE,155,0.0,0.0,91,0.00,,,0.00,weatherlink.com 1.10,2013-02-13 08:32:00,
2013-02-13 03:47:00,29.6,27.0,29.65,SSE,155,0.0,0.0,91,0.00,,,0.00,weatherlink.com 1.10,2013-02-13 08:47:00,
2013-02-13 04:02:00,28.8,27.0,29.66,SSE,155,0.0,0.0,91,0.00,,,0.00,weatherlink.com 1.10,2013-02-13 09:02:00,
2013-02-13 04:17:00,28.2,26.0,29.65,SSE,155,0.0,0.0,91,0.00,,,0.00,weatherlink.com 1.10,2013-02-13 09:17:00,
2013-02-13 04:32:00,28.0,26.0,29.66,SSE,155,0.0,0.0,92,0.00,,,0.00,weatherlink.com 1.10,2013-02-13 09:32:00,
2013-02-13 04:47:00,28.3,27.0,29.66,SSE,155,0.0,0.0,93,0.00,,,0.00,weatherlink.com 1.10,2013-02-13 09:47:00,
2013-02-13 05:02:00,28.0,26.0,29.66,SSE,155,0.0,0.0,93,0.00,,,0.00,weatherlink.com 1.10,2013-02-13 10:02:00,
2013-02-13 05:17:00,27.9,26.0,29.67,SSE,155,0.0,0.0,93,0.00,,,0.00,weatherlink.com 1.10,2013-02-13 10:17:00,
2013-02-13 05:32:00,28.0,26.0,29.67,SSE,155,0.0,0.0,93,0.00,,,0.00,weatherlink.com 1.10,2013-02-13 10:32:00,
2013-02-13 05:47:00,28.8,27.0,29.67,SSE,155,0.0,0.0,93,0.00,,,0.00,weatherlink.com 1.10,2013-02-13 10:47:00,
2013-02-13 06:02:00,28.6,27.0,29.67,SSE,155,0.0,0.0,93,0.00,,,0.00,weatherlink.com 1.10,2013-02-13 11:02:00,
2013-02-13 06:17:00,28.9,27.0,29.68,SSE,155,0.0,0.0,93,0.00,,,0.00,weatherlink.com 1.10,2013-02-13 11:17:00,
2013-02-13 06:32:00,29.4,27.0,29.68,SSE,155,0.0,0.0,92,0.00,,,0.00,weatherlink.com 1.10,2013-02-13 11:32:00,
2013-02-13 06:47:00,29.7,28.0,29.68,SSE,155,0.0,0.0,92,0.00,,,0.00,weatherlink.com 1.10,2013-02-13 11:47:00,
2013-02-13 07:02:00,29.8,28.0,29.68,SSE,155,0.0,0.0,92,0.00,,,0.00,weatherlink.com 1.10,2013-02-13 12:02:00,
2013-02-13 07:17:00,30.1,28.0,29.69,SSE,155,0.0,0.0,91,0.00,,,0.00,weatherlink.com 1.10,2013-02-13 12:17:00,
2013-02-13 07:33:00,30.7,28.0,29.69,SSE,155,0.0,0.0,91,0.00,,,0.00,weatherlink.com 1.10,2013-02-13 12:33:00,
2013-02-13 07:47:00,31.4,29.0,29.69,SSE,155,0.0,0.0,90,0.00,,,0.00,weatherlink.com 1.10,2013-02-13 12:47:00,
2013-02-13 08:18:00,33.3,29.0,29.70,SSE,155,0.0,0.0,85,0.00,,,0.00,weatherlink.com 1.10,2013-02-13 13:18:00,
2013-02-13 08:33:00,34.2,29.0,29.70,SSE,155,0.0,0.0,81,0.00,,,0.00,weatherlink.com 1.10,2013-02-13 13:33:00,
2013-02-13 08:48:00,35.3,28.0,29.70,SSE,155,0.0,0.0,76,0.00,,,0.00,weatherlink.com 1.10,2013-02-13 13:48:00,
2013-02-13 09:03:00,36.6,28.0,29.71,South,171,0.0,8.0,72,0.00,,,0.00,weatherlink.com 1.10,2013-02-13 14:03:00,
2013-02-13 09:18:00,37.7,28.0,29.71,South,173,0.0,11.0,69,0.00,,,0.00,weatherlink.com 1.10,2013-02-13 14:18:00,
2013-02-13 09:33:00,36.8,27.0,29.70,SE,143,0.0,9.0,68,0.00,,,0.00,weatherlink.com 1.10,2013-02-13 14:33:00,
2013-02-13 09:48:00,37.5,27.0,29.70,South,175,0.0,4.0,66,0.00,,,0.00,weatherlink.com 1.10,2013-02-13 14:48:00,
2013-02-13 10:03:00,38.6,28.0,29.70,West,275,0.0,5.0,65,0.00,,,0.00,weatherlink.com 1.10,2013-02-13 15:03:00,
2013-02-13 10:18:00,39.3,27.0,29.70,West,265,1.0,8.0,62,0.00,,,0.00,weatherlink.com 1.10,2013-02-13 15:18:00,
2013-02-13 10:33:00,39.8,27.0,29.70,SE,136,0.0,5.0,61,0.00,,,0.00,weatherlink.com 1.10,2013-02-13 15:33:00,
2013-02-13 10:48:00,39.7,27.0,29.70,SSE,157,0.0,4.0,61,0.00,,,0.00,weatherlink.com 1.10,2013-02-13 15:48:00,
2013-02-13 11:03:00,40.2,28.0,29.69,WNW,287,0.0,14.0,61,0.00,,,0.00,weatherlink.com 1.10,2013-02-13 16:03:00,
2013-02-13 11:18:00,40.6,27.0,29.69,West,265,0.0,6.0,58,0.00,,,0.00,weatherlink.com 1.10,2013-02-13 16:18:00,
2013-02-13 11:33:00,39.9,27.0,29.68,SSW,194,0.0,8.0,61,0.00,,,0.00,weatherlink.com 1.10,2013-02-13 16:33:00,
2013-02-13 11:48:00,40.8,27.0,29.67,SE,142,0.0,9.0,59,0.00,,,0.00,weatherlink.com 1.10,2013-02-13 16:48:00,
2013-02-13 12:03:00,39.5,26.0,29.67,SE,132,0.0,8.0,60,0.00,,,0.00,weatherlink.com 1.10,2013-02-13 17:03:00,
2013-02-13 12:18:00,40.0,26.0,29.67,SW,223,0.0,5.0,58,0.00,,,0.00,weatherlink.com 1.10,2013-02-13 17:18:00,
2013-02-13 12:33:00,41.0,27.0,29.66,West,265,0.0,4.0,57,0.00,,,0.00,weatherlink.com 1.10,2013-02-13 17:33:00,
2013-02-13 12:48:00,40.7,27.0,29.66,West,270,5.0,6.0,58,0.00,,,0.00,weatherlink.com 1.10,2013-02-13 17:48:00,
2013-02-13 13:03:00,39.9,27.0,29.66,West,275,8.0,9.0,61,0.00,,,0.00,weatherlink.com 1.10,2013-02-13 18:03:00,
2013-02-13 13:18:00,39.8,28.0,29.65,West,273,2.0,5.0,62,0.00,,,0.00,weatherlink.com 1.10,2013-02-13 18:18:00,
2013-02-13 13:33:00,40.1,27.0,29.65,West,265,5.0,14.0,59,0.00,,,0.00,weatherlink.com 1.10,2013-02-13 18:33:00,
2013-02-13 13:49:00,40.7,28.0,29.65,WNW,283,0.0,13.0,61,0.00,,,0.00,weatherlink.com 1.10,2013-02-13 18:49:00,
2013-02-13 14:03:00,40.6,26.0,29.66,SSW,204,0.0,5.0,56,0.00,,,0.00,weatherlink.com 1.10,2013-02-13 19:03:00,
2013-02-13 14:33:00,40.0,26.0,29.66,SSW,206,0.0,1.0,58,0.00,,,0.00,weatherlink.com 1.10,2013-02-13 19:33:00,
2013-02-13 14:49:00,39.9,27.0,29.67,SSW,206,0.0,0.0,60,0.00,,,0.00,weatherlink.com 1.10,2013-02-13 19:49:00,
2013-02-13 15:03:00,40.1,26.0,29.67,SSW,206,0.0,0.0,58,0.00,,,0.00,weatherlink.com 1.10,2013-02-13 20:03:00,
2013-02-13 15:18:00,40.0,27.0,29.67,SSW,206,0.0,0.0,60,0.00,,,0.00,weatherlink.com 1.10,2013-02-13 20:18:00,
2013-02-13 15:34:00,40.0,27.0,29.67,South,182,0.0,0.0,59,0.00,,,0.00,weatherlink.com 1.10,2013-02-13 20:34:00,
2013-02-13 15:49:00,39.6,27.0,29.66,South,182,0.0,0.0,61,0.00,,,0.00,weatherlink.com 1.10,2013-02-13 20:49:00,
2013-02-13 16:03:00,39.0,27.0,29.66,SSE,157,0.0,3.0,62,0.00,,,0.00,weatherlink.com 1.10,2013-02-13 21:03:00,
2013-02-13 16:18:00,38.2,28.0,29.67,SSE,156,0.0,0.0,67,0.00,,,0.00,weatherlink.com 1.10,2013-02-13 21:18:00,
2013-02-13 16:34:00,37.8,29.0,29.66,ESE,123,0.0,1.0,70,0.00,,,0.00,weatherlink.com 1.10,2013-02-13 21:34:00,
2013-02-13 16:48:00,36.8,29.0,29.66,ESE,123,0.0,0.0,72,0.00,,,0.00,weatherlink.com 1.10,2013-02-13 21:48:00,
2013-02-13 17:04:00,36.4,29.0,29.67,SE,130,0.0,3.0,74,0.00,,,0.00,weatherlink.com 1.10,2013-02-13 22:04:00,
2013-02-13 17:19:00,36.2,29.0,29.67,SE,130,0.0,0.0,74,0.00,,,0.00,weatherlink.com 1.10,2013-02-13 22:19:00,
2013-02-13 17:34:00,35.7,29.0,29.66,SE,130,0.0,0.0,76,0.00,,,0.00,weatherlink.com 1.10,2013-02-13 22:34:00,
2013-02-13 17:48:00,34.5,28.0,29.67,SE,130,0.0,0.0,78,0.00,,,0.00,weatherlink.com 1.10,2013-02-13 22:48:00,
2013-02-13 18:03:00,34.0,28.0,29.67,SE,130,0.0,0.0,79,0.00,,,0.00,weatherlink.com 1.10,2013-02-13 23:03:00,
2013-02-13 18:18:00,33.4,28.0,29.67,SE,130,0.0,0.0,81,0.00,,,0.00,weatherlink.com 1.10,2013-02-13 23:18:00,
2013-02-13 18:33:00,32.5,28.0,29.67,SE,130,0.0,0.0,84,0.00,,,0.00,weatherlink.com 1.10,2013-02-13 23:33:00,
2013-02-13 18:49:00,32.5,29.0,29.68,SE,130,0.0,0.0,85,0.00,,,0.00,weatherlink.com 1.10,2013-02-13 23:49:00,
2013-02-13 19:03:00,32.7,29.0,29.70,SE,130,0.0,0.0,86,0.00,,,0.00,weatherlink.com 1.10,2013-02-14 00:03:00,
2013-02-13 19:18:00,32.9,29.0,29.69,SE,130,0.0,0.0,86,0.00,,,0.00,weatherlink.com 1.10,2013-02-14 00:18:00,
2013-02-13 19:33:00,33.3,29.0,29.70,SE,130,0.0,0.0,85,0.00,,,0.00,weatherlink.com 1.10,2013-02-14 00:33:00,
2013-02-13 19:49:00,33.2,30.0,29.69,SE,130,0.0,0.0,86,0.00,,,0.00,weatherlink.com 1.10,2013-02-14 00:49:00,
2013-02-13 20:03:00,33.0,29.0,29.69,SE,130,0.0,0.0,86,0.00,,,0.00,weatherlink.com 1.10,2013-02-14 01:03:00,
2013-02-13 20:18:00,32.6,29.0,29.69,SE,130,0.0,0.0,87,0.00,,,0.00,weatherlink.com 1.10,2013-02-14 01:18:00,
2013-02-13 20:33:00,32.1,29.0,29.69,SE,130,0.0,0.0,88,0.00,,,0.00,weatherlink.com 1.10,2013-02-14 01:33:00,
2013-02-13 20:49:00,31.9,29.0,29.69,SE,130,0.0,0.0,88,0.00,,,0.00,weatherlink.com 1.10,2013-02-14 01:49:00,
2013-02-13 21:03:00,31.7,29.0,29.68,SE,130,0.0,0.0,89,0.00,,,0.00,weatherlink.com 1.10,2013-02-14 02:03:00,
2013-02-13 21:18:00,31.6,29.0,29.69,SE,130,0.0,0.0,90,0.00,,,0.00,weatherlink.com 1.10,2013-02-14 02:18:00,
2013-02-13 21:33:00,31.4,29.0,29.68,SE,130,0.0,0.0,90,0.00,,,0.00,weatherlink.com 1.10,2013-02-14 02:33:00,
2013-02-13 21:49:00,31.1,29.0,29.68,SE,130,0.0,0.0,90,0.00,,,0.00,weatherlink.com 1.10,2013-02-14 02:49:00,
2013-02-13 22:04:00,30.7,28.0,29.68,SE,130,0.0,0.0,91,0.00,,,0.00,weatherlink.com 1.10,2013-02-14 03:04:00,
2013-02-13 22:19:00,30.5,28.0,29.68,SE,130,0.0,0.0,91,0.00,,,0.00,weatherlink.com 1.10,2013-02-14 03:19:00,
2013-02-13 22:34:00,30.7,28.0,29.67,SE,130,0.0,0.0,91,0.00,,,0.00,weatherlink.com 1.10,2013-02-14 03:34:00,
2013-02-13 22:49:00,30.4,28.0,29.68,SE,130,0.0,0.0,91,0.00,,,0.00,weatherlink.com 1.10,2013-02-14 03:49:00,
2013-02-13 23:04:00,30.5,28.0,29.68,SE,130,0.0,0.0,91,0.00,,,0.00,weatherlink.com 1.10,2013-02-14 04:04:00,
2013-02-13 23:19:00,30.6,28.0,29.68,SE,130,0.0,0.0,91,0.00,,,0.00,weatherlink.com 1.10,2013-02-14 04:19:00,